Regional Weather Roundup
Issued by NWS

Home | Current Version | Previous Version | Graphics & Text | Print | Product List | Glossary On
Versions: 1 2 3 4 5 6 7 8 9 10 11 12 13 14 15 16 17 18 19 20 21 22 23 24 25 26 27 28 29 30 31 32 33 34 35 36 37 38 39 40 41 42 43 44 45 46 47 48 49 50
000
ASUS43 KLMK 230610
RWRKY
KENTUCKY REGIONAL WEATHER ROUNDUP
NATIONAL WEATHER SERVICE LOUISVILLE KY
100 AM EST FRI FEB 23 2018

NOTE "FAIR" INDICATES FEW OR NO CLOUDS BELOW 12,000 FEET
WITH NO SIGNIFICANT WEATHER AND/OR OBSTRUCTIONS TO VISIBILITY.

KYZ001>023-026-027-061>063-070>075-230700-
WESTERN AND SOUTH CENTRAL KENTUCKY

CITY           SKY/WX    TMP DP  RH WIND       PRES   REMARKS
PADUCAH        LGT RAIN  52  50  93 SE7       30.22F
HENDERSON      RAIN      48  48 100 E7        30.27F FOG
OWENSBORO      HVY RAIN  48  48 100 NE7       30.29F
HOPKINSVILLE   MOCLDY    57  57 100 E8        30.23F
BOWLING GREEN  FOG       56  56 100 E3        30.28F VSB 1/4
GLASGOW        CLOUDY   N/A N/A N/A E3        30.28F FOG
$$

KYZ024-025-028>034-038-045-046-053-230700-
NORTH CENTRAL KENTUCKY

CITY           SKY/WX    TMP DP  RH WIND       PRES   REMARKS
LOUISVILLE/SDF LGT RAIN  50  49  96 VRB3      30.31F VSB 1
LOUISVILLE/LOU FOG       49  49 100 NE5       30.32F VSB 3/4
FORT KNOX      FOG       49  49 100 NE6       30.30S VSB 1/2
$$

KYZ035>037-039>044-047>052-055>060-089>105-230700-
NORTHEAST KENTUCKY

CITY           SKY/WX    TMP DP  RH WIND       PRES   REMARKS
LEXINGTON      CLOUDY    53  51  93 SE8       30.33F FOG
COVINGTON      DRIZZLE   45  45 100 SE8       30.34F FOG
FRANKFORT      CLOUDY    50  47  89 CALM      30.32F FOG
$$

KYZ054-064>069-076>088-106>120-230700-
SOUTHEAST KENTUCKY

CITY           SKY/WX    TMP DP  RH WIND       PRES   REMARKS
JACKSON        FAIR      53  52  96 CALM      30.36S
LONDON         FOG       53  52  96 CALM      30.35S VSB 1/4
SOMERSET       CLOUDY    54  54 100 CALM      30.34F FOG
MIDDLESBORO    FAIR      54  54 100 CALM      30.37F
MONTICELLO     NOT AVBL
$$





USA.gov is the U.S. government's official web portal to all federal, state and local government web resources and services.